Location: Caltech
(34.1382°N, 118.1253°W)
Time: 02:26:17
(UTC-07:00)

Hamsat - Visible Passes

Search period start: 19 April 2015 00:00
Search period end: 29 April 2015 00:00
Orbit: 591 x 623 km, 97.6° (Epoch: 18 April)

Date Brightness Start Highest point End Pass type
(mag) Time Alt. Az. Time Alt. Az. Time Alt. Az.
19 Apr ? 05:19:08 10° NE 05:21:43 16° E 05:24:28 10° SE visible
20 Apr ? 05:31:40 10° NE 05:35:02 23° E 05:38:26 10° SSE visible
21 Apr ? 05:44:27 10° NNE 05:48:17 33° E 05:52:07 10° SSE visible
26 Apr ? 05:15:39 10° ENE 05:17:57 15° E 05:20:26 10° SE visible
27 Apr ? 05:28:02 10° NE 05:31:13 21° E 05:34:28 10° SE visible
